Hourly Data Report for October 09, 2013

All times are specified in Local Standard Time (LST). Add 1 hour to adjust for Daylight Saving Time where and when it is observed.

KUGAARUK CLIMATE
NUNAVUT

68°32'15.060" N
89°47'47.020" W
15.80 m
2303094
71407
NBB

Download Data

Hourly Data (October 2013)
Hourly Data Report for October 9, 2013
Temp Definition
°C
Dew Point Temp Definition
°C
Rel Hum Definition
%
Wind Dir Definition
10's deg

Wind Spd Definition
km/h
Visibility Definition
km
Stn Press Definition
kPa
Hmdx Definition


Wind Chill Definition


Weather Definition


TIME
00:00 -7.0 -9.5 82 29 9   101.67   -11 LegendNANA
01:00 -8.7 -11.3 81 29 6   101.69   -12 LegendNANA
02:00 -7.6 -9.7 85 30 7   101.68   -11 LegendNANA
03:00 -7.3 -9.2 86 29 7   101.70   -11 LegendNANA
04:00 -7.7 -9.8 85 32 7   101.70   -11 LegendNANA
05:00 -7.3 -9.0 88 31 7   101.68   -11 LegendNANA
06:00 -6.9 -8.8 86 31 9   101.67   -11 LegendNANA
07:00 -6.8 -9.1 84 29 7   101.65   -10 LegendNANA
08:00 -6.1 -8.8 81 27 9   101.62   -10 LegendNANA
09:00 -6.4 -8.7 84 29 9   101.61   -11 LegendNANA
10:00 -5.8 -9.8 73 26 9   101.60   -10 LegendNANA
11:00 -5.7 -9.9 72 26 13   101.60   -11 LegendNANA
12:00 -5.8 -10.2 71 24 15   101.60   -12 LegendNANA
13:00 -5.7 -10.2 71 24 13   101.59   -11 LegendNANA
14:00 -6.4 -10.5 73 23 13   101.59   -12 LegendNANA
15:00 -6.8 -10.2 77 23 11   101.55   -12 LegendNANA
16:00 -8.1 -10.6 82 22 11   101.56   -13 LegendNANA
17:00 -8.6 -11.0 83 24 9   101.52   -13 LegendNANA
18:00 -8.9 -11.0 85 24 6   101.50   -12 LegendNANA
19:00 -8.4 -10.9 82 20 7   101.45   -12 LegendNANA
20:00 -8.2 -10.9 81 16 4   101.45   -10 LegendNANA
21:00 -8.8 -10.8 85 2 6   101.42   -12 LegendNANA
22:00 -8.6 -10.1 89 1 4   101.44   -11 LegendNANA
23:00 -8.6 -10.3 87 5 4   101.41   -11 LegendNANA

Notes on Data Quality.

Legend

  • E = Estimated
  • M = Missing
  • NA = Not Available
  • ‡ = Partner data that is not subject to review by the National Climate Archives
Date modified: